Home > Weather > Manchester > Past weeks

Flag for United Kingdom Past Weather in Manchester, England, United Kingdom — Yesterday and Last 2 Weeks

Now
64 °F

Sunny.


Feels Like: 64 °F
Forecast: 52 / 74 °F
Wind: 5 mph from Northwest

Location: Manchester Airport

Current Time: Aug 29, 2016 at 9:00:03 PM

Latest Report: Aug 29, 2016 at 7:50 PM


Visibility: 10 mi

Pressure: 30.21 "Hg

Humidity: 60%

Dew Point: 50 °F

Location of ManchesterLocation

Past Weather in Manchester — Graph

°F

Manchester Temperature Yesterday

Maximum temperature yesterday: 70 °F (at 4:50 PM)
Minimum temperature yesterday: 59 °F (at 3:50 AM)
Average temperature yesterday: 63 °F

High & Low Weather Summary for the Past Weeks

 TemperatureHumidityPressure
High79 °F (Aug 23, 3:20 PM)100% (Aug 21, 9:50 PM)30.33 "Hg (Aug 21, 9:50 PM)
Low46 °F (Aug 15, 5:50 AM)47% (Aug 18, 5:50 PM)29.45 "Hg (Aug 20, 7:20 AM)
Average63 °F80%29.98 "Hg
* Reported Aug 14 7:20 PM — Aug 29 7:50 PM, Manchester, Weather by CustomWeather, © 2016

Note: Actual official high and low records may vary slightly from our data, if they occured in-between our weather recording intervals... More about our weather records

Advertising

Manchester Weather History for the Previous 24 Hours

Scroll right to see more
 ConditionsComfort  
Time TempWeatherWind HumidityBarometerVisibility
7:50 PM
Mon, Aug 29
64 °FSunny.5 mph60%30.21 "Hg10 mi
7:20 PM66 °FSunny.3 mph56%30.18 "Hg10 mi
6:50 PM68 °FSunny.3 mph53%30.18 "Hg10 mi
6:20 PM68 °FSunny.6 mph53%30.18 "Hg10 mi
5:50 PM68 °FSunny.7 mph53%30.18 "Hg10 mi
5:20 PM68 °FSunny.10 mph53%30.21 "Hg10 mi
4:50 PM68 °FPassing clouds.8 mph53%30.21 "HgN/A
4:20 PM68 °FSunny.9 mph53%30.21 "Hg10 mi
3:50 PM68 °FPassing clouds.9 mph53%30.21 "HgN/A
3:20 PM66 °FPassing clouds.10 mph56%30.21 "HgN/A
2:50 PM66 °FPassing clouds.13 mph52%30.21 "HgN/A
2:20 PM66 °FPassing clouds.13 mph56%30.21 "HgN/A
1:50 PM66 °FPassing clouds.9 mph56%30.21 "HgN/A
1:20 PM66 °FScattered clouds.12 mph56%30.21 "HgN/A
12:50 PM64 °FPassing clouds.10 mph60%30.21 "HgN/A
12:20 PM64 °FPassing clouds.12 mph60%30.18 "HgN/A
11:50 AM64 °FScattered clouds.10 mph64%30.18 "HgN/A
11:20 AM63 °FScattered clouds.12 mph68%30.18 "HgN/A
10:50 AM63 °FScattered clouds.13 mph68%30.18 "HgN/A
10:20 AM63 °FScattered clouds.10 mph68%30.18 "HgN/A
9:50 AM61 °FScattered clouds.9 mph83%30.18 "HgN/A
9:20 AM59 °FBroken clouds.8 mph82%30.18 "HgN/A
8:50 AM59 °FScattered clouds.5 mph88%30.15 "HgN/A
8:20 AM59 °FBroken clouds.5 mph88%30.15 "HgN/A
7:50 AM57 °FPassing clouds.7 mph94%30.15 "HgN/A
7:20 AM57 °FPassing clouds.7 mph94%30.15 "HgN/A
6:50 AM57 °FPassing clouds.6 mph94%30.12 "HgN/A
6:20 AM57 °FPassing clouds.7 mph94%30.12 "HgN/A
5:50 AM59 °FPassing clouds.10 mph94%30.12 "HgN/A
5:20 AM59 °FMostly cloudy.8 mph100%30.09 "HgN/A
4:50 AM59 °FRain. Mostly cloudy.6 mph100%30.09 "Hg4 mi
4:20 AM59 °FPartly cloudy.6 mph100%30.09 "Hg4 mi
3:50 AM59 °FOvercast.3 mph100%30.09 "Hg6 mi
3:20 AM59 °FPassing clouds.No wind100%30.09 "HgN/A
2:50 AM59 °FPassing clouds.3 mph100%30.07 "HgN/A
2:20 AM59 °FRain showers. Partly cloudy.5 mph100%30.07 "HgN/A
1:50 AM59 °FLight rain. Mostly cloudy.3 mph94%30.07 "HgN/A
1:20 AM59 °FPassing clouds.5 mph94%30.07 "HgN/A
12:50 AM59 °FPassing clouds.5 mph94%30.07 "HgN/A
12:20 AM59 °FPassing clouds.5 mph94%30.07 "HgN/A
11:50 PM
Sun, Aug 28
59 °FPassing clouds.3 mph94%30.07 "HgN/A
11:20 PM59 °FPartly cloudy.5 mph94%30.07 "HgN/A
10:50 PM61 °FPassing clouds.6 mph88%30.04 "HgN/A
10:20 PM59 °FPassing clouds.5 mph94%30.04 "HgN/A
9:50 PM61 °FPassing clouds.6 mph88%30.04 "HgN/A
9:20 PM63 °FPassing clouds.7 mph83%30.01 "HgN/A
Weather by CustomWeather, © 2016

See weather overviewHow to use our weather pages